Weather History for KGRD - August, 2013

Change the Weather History Date:

Sunday, August 18, 2013

  Actual Average Record
Temperature  
Mean Temperature 74 °F -  
Max Temperature 81 °F - - ()
Min Temperature 66 °F - - ()
Cooling Degree Days 8    
Growing Degree Days 24 (Base 50)    
Moisture  
Dew Point 67 °F    
Average Humidity 89    
Maximum Humidity 100    
Minimum Humidity 69    
Precipitation  
Precipitation 0.15 in - - ()
Sea Level Pressure  
Sea Level Pressure 30.19 in    
Wind  
Wind Speed 3 mph (NE)    
Max Wind Speed 8 mph    
Max Gust Speed -    
Visibility 5 miles    
Events Fog , Rain    
T = Trace of Precipitation, MM = Missing Value Source: NWS Daily Summary

Daily Weather History Graph

Daily Weather History Graph

Search for Another Location

Airport or City:

Trip Planner

Search our weather history database for the weather conditions in past years. The results will help you decide how hot, cold, wet, or windy it might be!

Date:

Astronomy

Aug. 18, 2013 Rise Set
Actual Time 6:52 AM EDT 8:12 PM EDT
Civil Twilight 6:25 AM EDT 8:38 PM EDT
Nautical Twilight 5:54 AM EDT 9:09 PM EDT
Astronomical Twilight 5:21 AM EDT 9:42 PM EDT
Moon 6:14 PM EDT (8/18) 4:03 AM EDT (8/18)
Length of Visible Light 14h 12m
Length of Day
13h 19m
Waxing Gibbous, 92% of the Moon is Illuminated
Aug 18
Waxing Gibbous
Aug 20
Full
Aug 28
Last Quarter
Sep 5
New
Sep 12
First Quarter

Hourly Weather History & Observations

Time (EDT) Temp. Heat Index Dew Point Humidity Pressure Visibility Wind Dir Wind Speed Gust Speed Precip Events Conditions
12:56 AM 66.9 °F - 64.9 °F 93% 30.17 in 8.0 mi North 3.5 mph - 0.00 in   Overcast
1:10 AM 66.2 °F - 64.4 °F 94% 30.18 in 7.0 mi NNE 3.5 mph - 0.01 in   Overcast
1:56 AM 66.9 °F - 64.9 °F 93% 30.16 in 7.0 mi NE 3.5 mph - 0.01 in   Overcast
2:33 AM 66.2 °F - 64.4 °F 94% 30.17 in 1.8 mi ENE 3.5 mph - N/A   Overcast
2:56 AM 66.0 °F - 64.9 °F 96% 30.16 in 0.8 mi ESE 3.5 mph - 0.00 in Rain Light Rain
3:05 AM 66.2 °F - 64.4 °F 94% 30.17 in 1.0 mi ESE 3.5 mph - 0.00 in Rain Light Rain
3:19 AM 66.2 °F - 64.4 °F 94% 30.16 in 0.8 mi East 5.8 mph - 0.00 in Rain Light Rain
3:56 AM 66.9 °F - 64.9 °F 93% 30.15 in 0.5 mi NE 3.5 mph - 0.02 in Fog , Rain Light Rain
4:56 AM 66.9 °F - 64.9 °F 93% 30.15 in 0.8 mi Calm Calm - 0.01 in   Mist
5:18 AM 66.2 °F - 64.4 °F 94% 30.17 in 1.2 mi NE 3.5 mph - N/A   Overcast
5:34 AM 66.2 °F - 64.4 °F 94% 30.18 in 2.0 mi ENE 3.5 mph - N/A   Overcast
5:46 AM 66.2 °F - 64.4 °F 94% 30.18 in 1.8 mi NE 3.5 mph - N/A   Overcast
5:53 AM 66.2 °F - 64.4 °F 94% 30.18 in 2.5 mi NE 3.5 mph - N/A   Overcast
5:56 AM 66.9 °F - 64.9 °F 93% 30.17 in 2.5 mi NE 3.5 mph - N/A   Overcast
6:04 AM 66.2 °F - 64.4 °F 94% 30.18 in 3.0 mi Calm Calm - N/A   Overcast
6:20 AM 66.2 °F - 66.2 °F 100% 30.18 in 2.5 mi Calm Calm - N/A   Overcast
6:35 AM 66.2 °F - 66.2 °F 100% 30.19 in 1.5 mi Calm Calm - N/A   Overcast
6:54 AM 66.2 °F - 66.2 °F 100% 30.19 in 2.0 mi Calm Calm - N/A   Overcast
6:56 AM 66.9 °F - 66.0 °F 97% 30.18 in 2.0 mi NNE 3.5 mph - N/A   Overcast
7:04 AM 66.2 °F - 66.2 °F 100% 30.20 in 1.8 mi Calm Calm - N/A   Overcast
7:15 AM 66.2 °F - 66.2 °F 100% 30.20 in 2.5 mi Calm Calm - N/A   Overcast
7:29 AM 66.2 °F - 66.2 °F 100% 30.20 in 1.2 mi NE 4.6 mph - N/A   Overcast
7:56 AM 66.9 °F - 66.0 °F 97% 30.19 in 1.0 mi NE 3.5 mph - 0.01 in   Overcast
8:46 AM 68.0 °F - 66.2 °F 94% 30.22 in 2.0 mi NNE 3.5 mph - N/A   Overcast
8:56 AM 68.0 °F - 66.0 °F 93% 30.21 in 3.0 mi NNE 4.6 mph - N/A   Overcast
9:05 AM 68.0 °F - 66.2 °F 94% 30.23 in 4.0 mi NE 3.5 mph - N/A   Overcast
9:56 AM 70.0 °F - 66.9 °F 90% 30.22 in 3.0 mi NE 3.5 mph - N/A   Overcast
10:31 AM 69.8 °F - 68.0 °F 94% 30.23 in 2.5 mi Calm Calm - N/A   Overcast
10:51 AM 69.8 °F - 68.0 °F 94% 30.24 in 3.0 mi Calm Calm - N/A   Overcast
10:56 AM 70.0 °F - 68.0 °F 93% 30.23 in 2.5 mi Calm Calm - N/A   Overcast
11:06 AM 69.8 °F - 68.0 °F 94% 30.24 in 5.0 mi Calm Calm - N/A   Overcast
11:56 AM 73.0 °F - 69.1 °F 87% 30.22 in 10.0 mi Calm Calm - N/A   Overcast
12:16 PM 73.4 °F - 69.8 °F 88% 30.24 in 10.0 mi Calm Calm - N/A   Overcast
12:43 PM 73.4 °F - 69.8 °F 88% 30.23 in 10.0 mi Calm Calm - N/A   Mostly Cloudy
12:56 PM 75.0 °F - 69.1 °F 82% 30.21 in 10.0 mi ENE 3.5 mph - N/A   Mostly Cloudy
1:56 PM 77.0 °F - 68.0 °F 74% 30.20 in 10.0 mi Calm Calm - N/A   Overcast
2:56 PM 79.0 °F - 68.0 °F 69% 30.17 in 10.0 mi NE 4.6 mph - N/A   Mostly Cloudy
3:39 PM 78.8 °F - 68.0 °F 69% 30.18 in 10.0 mi Calm Calm - N/A   Scattered Clouds
3:56 PM 80.1 °F 82.9 °F 69.1 °F 69% 30.16 in 10.0 mi Calm Calm - N/A   Mostly Cloudy
4:25 PM 80.6 °F 83.9 °F 69.8 °F 70% 30.17 in 10.0 mi North 4.6 mph - N/A   Mostly Cloudy
4:56 PM 80.1 °F 82.9 °F 69.1 °F 69% 30.15 in 10.0 mi NE 3.5 mph - N/A   Mostly Cloudy
5:28 PM 78.8 °F - 69.8 °F 74% 30.16 in 1.2 mi Calm Calm - N/A   Haze
5:38 PM 78.8 °F - 69.8 °F 74% 30.16 in 4.0 mi North 3.5 mph - N/A   Haze
5:45 PM 80.6 °F 83.9 °F 69.8 °F 70% 30.16 in 1.5 mi NNE 5.8 mph - N/A   Haze
5:56 PM 81.0 °F 84.4 °F 70.0 °F 69% 30.14 in 8.0 mi NNE 4.6 mph - N/A   Mostly Cloudy
6:56 PM 78.1 °F - 71.1 °F 79% 30.15 in 10.0 mi NNW 3.5 mph - N/A   Mostly Cloudy
7:56 PM 75.0 °F - 71.1 °F 87% 30.16 in 10.0 mi Calm Calm - N/A   Overcast
8:56 PM 73.0 °F - 70.0 °F 90% 30.18 in 4.0 mi South 8.1 mph - N/A Rain Rain
9:12 PM 73.4 °F - 69.8 °F 88% 30.20 in 6.0 mi Calm Calm - N/A Rain Light Rain
9:23 PM 71.6 °F - 69.8 °F 94% 30.20 in 5.0 mi ESE 3.5 mph - N/A Rain Rain
9:33 PM 71.6 °F - 69.8 °F 94% 30.21 in 8.0 mi Calm Calm - N/A Rain Light Rain
9:56 PM 72.0 °F - 70.0 °F 93% 30.20 in 10.0 mi Calm Calm - N/A   Overcast
10:56 PM 72.0 °F - 70.0 °F 93% 30.19 in 10.0 mi Calm Calm - 0.05 in Rain Light Rain
11:56 PM 71.1 °F - 70.0 °F 96% 30.21 in 4.0 mi Calm Calm - 0.05 in Rain Rain